Weather History for Tehachapi, CA

Change the Weather History Date:

Sunday, January 20, 2013

  Actual Average Record
Temperature  
Mean Temperature 44 °F -  
Max Temperature 59 °F 53 °F 62 °F (2014)
Min Temperature 28 °F 31 °F 26 °F (2014)
Degree Days  
Heating Degree Days 22    
Moisture  
Dew Point 3 °F    
Average Humidity 21    
Maximum Humidity 40    
Minimum Humidity 9    
Precipitation  
Precipitation 0.00 in - - ()
Sea Level Pressure  
Sea Level Pressure 30.24 in    
Wind  
Wind Speed 11 mph (ESE)    
Max Wind Speed 18 mph    
Max Gust Speed 23 mph    
Visibility 10 miles    
Events      
Averages and records for this station are not official NWS values.
T = Trace of Precipitation, MM = Missing Value Source: NWS Daily Summary

Daily Weather History Graph

Daily Weather History Graph

Search for Another Location

Airport:

Trip Planner

Search our weather history database for the weather conditions in past years. The results will help you decide how hot, cold, wet, or windy it might be!

Date:

Astronomy

Jan. 20, 2013 Rise Set
Actual Time 6:59 AM PST 5:10 PM PST
Civil Twilight 6:32 AM PST 5:37 PM PST
Nautical Twilight 6:01 AM PST 6:08 PM PST
Astronomical Twilight 5:31 AM PST 6:38 PM PST
Moon 12:14 PM PST (1/20) 1:37 AM PST (1/20)
Length of Visible Light 11h 05m
Length of Day
10h 10m
Waxing Gibbous, 67% of the Moon is Illuminated
Jan 20
Waxing Gibbous
Jan 26
Full
Feb 3
Last Quarter
Feb 9
New
Feb 17
First Quarter

Hourly Weather History & Observations

Time (PST) Temp. Windchill Dew Point Humidity Pressure Visibility Wind Dir Wind Speed Gust Speed Precip Events Conditions
12:15 AM 37.4 °F 30.8 °F 5.0 °F 26% 30.27 in 10.0 mi ESE 9.2 mph - N/A   Clear
12:35 AM 41.0 °F 35.2 °F 5.0 °F 23% 30.27 in 10.0 mi ESE 9.2 mph 16.1 mph N/A   Clear
12:55 AM 32.0 °F 23.0 °F 6.8 °F 35% 30.28 in 10.0 mi ESE 11.5 mph - N/A   Clear
1:15 AM 41.0 °F 34.3 °F 3.2 °F 21% 30.27 in 10.0 mi East 11.5 mph - N/A   Clear
1:35 AM 41.0 °F 34.7 °F 3.2 °F 21% 30.27 in 10.0 mi East 10.4 mph - N/A   Clear
1:55 AM 39.2 °F 33.6 °F 5.0 °F 24% 30.28 in 10.0 mi ESE 8.1 mph - N/A   Clear
2:15 AM 32.0 °F 24.8 °F 5.0 °F 32% 30.27 in 10.0 mi ESE 8.1 mph - N/A   Clear
2:35 AM 32.0 °F 24.8 °F 6.8 °F 35% 30.27 in 10.0 mi ESE 8.1 mph - N/A   Clear
2:55 AM 28.4 °F 19.7 °F 6.8 °F 40% 30.27 in 10.0 mi ESE 9.2 mph - N/A   Clear
3:15 AM 30.2 °F 21.9 °F 6.8 °F 37% 30.27 in 10.0 mi ESE 9.2 mph - N/A   Clear
3:35 AM 32.0 °F 24.2 °F 5.0 °F 32% 30.26 in 10.0 mi ESE 9.2 mph - N/A   Clear
3:55 AM 28.4 °F 20.4 °F 6.8 °F 40% 30.26 in 10.0 mi ESE 8.1 mph - N/A   Clear
4:15 AM 32.0 °F 24.8 °F 5.0 °F 32% 30.26 in 10.0 mi ESE 8.1 mph - N/A   Clear
4:35 AM 28.4 °F 20.4 °F 6.8 °F 40% 30.25 in 10.0 mi ESE 8.1 mph - N/A   Clear
4:55 AM 32.0 °F 24.8 °F 5.0 °F 32% 30.25 in 10.0 mi East 8.1 mph - N/A   Clear
5:15 AM 32.0 °F 24.8 °F 5.0 °F 32% 30.25 in 10.0 mi East 8.1 mph - N/A   Clear
5:35 AM 32.0 °F 24.2 °F 5.0 °F 32% 30.25 in 10.0 mi ESE 9.2 mph - N/A   Clear
5:55 AM 28.4 °F 19.7 °F 6.8 °F 40% 30.25 in 10.0 mi ESE 9.2 mph - N/A   Clear
6:15 AM 30.2 °F 21.3 °F 6.8 °F 37% 30.25 in 10.0 mi East 10.4 mph - N/A   Clear
6:35 AM 39.2 °F 31.6 °F 1.4 °F 21% 30.25 in 10.0 mi East 12.7 mph - N/A   Clear
6:55 AM 30.2 °F 21.9 °F 6.8 °F 37% 30.25 in 10.0 mi ESE 9.2 mph - N/A   Clear
7:15 AM 28.4 °F 19.1 °F 6.8 °F 40% 30.25 in 10.0 mi ESE 10.4 mph - N/A   Clear
7:35 AM 35.6 °F 28.0 °F 5.0 °F 28% 30.26 in 10.0 mi ESE 10.4 mph - N/A   Clear
7:55 AM 44.6 °F 38.8 °F 1.4 °F 17% 30.26 in 10.0 mi ESE 11.5 mph - N/A   Clear
8:15 AM 44.6 °F 38.4 °F 3.2 °F 18% 30.26 in 10.0 mi ESE 12.7 mph - N/A   Clear
8:35 AM 48.2 °F - 5.0 °F 17% 30.26 in 10.0 mi ESE 11.5 mph - N/A   Clear
8:55 AM 50.0 °F - 1.4 °F 14% 30.27 in 10.0 mi ESE 13.8 mph - N/A   Clear
9:15 AM 51.8 °F - 5.0 °F 15% 30.28 in 10.0 mi ESE 12.7 mph - N/A   Clear
9:35 AM 53.6 °F - 3.2 °F 13% 30.28 in 10.0 mi ESE 13.8 mph - N/A   Clear
9:55 AM 55.4 °F - 3.2 °F 12% 30.29 in 10.0 mi ESE 10.4 mph - N/A   Clear
10:15 AM 55.4 °F - 1.4 °F 11% 30.28 in 10.0 mi SE 15.0 mph - N/A   Clear
10:35 AM 57.2 °F - 1.4 °F 10% 30.28 in 9.0 mi SE 15.0 mph - N/A   Clear
10:55 AM 57.2 °F - 1.4 °F 10% 30.27 in 10.0 mi SE 12.7 mph - N/A   Clear
11:15 AM 57.2 °F - 1.4 °F 10% 30.26 in 10.0 mi SE 12.7 mph 19.6 mph N/A   Clear
11:35 AM 59.0 °F - 1.4 °F 10% 30.24 in 10.0 mi SE 16.1 mph 21.9 mph N/A   Clear
11:55 AM 59.0 °F - 1.4 °F 10% 30.23 in 10.0 mi SE 15.0 mph 20.7 mph N/A   Clear
12:15 PM 59.0 °F - 1.4 °F 10% 30.22 in 10.0 mi SE 17.3 mph 23.0 mph N/A   Clear
12:35 PM 59.0 °F - 1.4 °F 10% 30.21 in 10.0 mi SE 15.0 mph 23.0 mph N/A   Clear
12:55 PM 59.0 °F - 1.4 °F 10% 30.20 in 9.0 mi SE 16.1 mph 21.9 mph N/A   Clear
1:15 PM 59.0 °F - 1.4 °F 10% 30.20 in 10.0 mi SE 17.3 mph - N/A   Clear
1:35 PM 59.0 °F - -0.4 °F 9% 30.19 in 9.0 mi SE 16.1 mph 21.9 mph N/A   Clear
1:55 PM 59.0 °F - -0.4 °F 9% 30.19 in 10.0 mi SE 18.4 mph 21.9 mph N/A   Clear
2:15 PM 59.0 °F - -0.4 °F 9% 30.18 in 10.0 mi SE 17.3 mph 21.9 mph N/A   Clear
2:35 PM 59.0 °F - -0.4 °F 9% 30.18 in 10.0 mi SE 16.1 mph 21.9 mph N/A   Clear
2:55 PM 59.0 °F - -0.4 °F 9% 30.18 in 10.0 mi SE 16.1 mph 23.0 mph N/A   Clear
3:15 PM 59.0 °F - -0.4 °F 9% 30.18 in 10.0 mi SE 13.8 mph 21.9 mph N/A   Clear
3:35 PM 59.0 °F - -0.4 °F 9% 30.18 in 10.0 mi SE 16.1 mph 20.7 mph N/A   Clear
3:55 PM 57.2 °F - -0.4 °F 10% 30.18 in 10.0 mi SE 12.7 mph 19.6 mph N/A   Clear
4:15 PM 57.2 °F - -0.4 °F 10% 30.19 in 10.0 mi SE 13.8 mph - N/A   Clear
4:35 PM 53.6 °F - 1.4 °F 12% 30.19 in 10.0 mi SE 11.5 mph - N/A   Clear
4:55 PM 51.8 °F - 1.4 °F 13% 30.20 in 10.0 mi SE 9.2 mph - N/A   Clear
5:15 PM 48.2 °F - 1.4 °F 15% 30.20 in 10.0 mi East 10.4 mph - N/A   Clear
5:35 PM 48.2 °F - 1.4 °F 15% 30.20 in 10.0 mi East 9.2 mph - N/A   Clear
5:55 PM 46.4 °F 41.9 °F 1.4 °F 16% 30.21 in 10.0 mi ESE 9.2 mph - N/A   Clear
6:15 PM 46.4 °F 41.5 °F 1.4 °F 16% 30.21 in 10.0 mi East 10.4 mph - N/A   Clear
6:35 PM 46.4 °F 41.1 °F 1.4 °F 16% 30.21 in 10.0 mi ESE 11.5 mph - N/A   Clear
6:55 PM 46.4 °F 41.5 °F 1.4 °F 16% 30.22 in 10.0 mi ESE 10.4 mph - N/A   Clear
7:15 PM 44.6 °F 40.2 °F 1.4 °F 17% 30.22 in 10.0 mi East 8.1 mph - N/A   Clear
7:55 PM 44.6 °F 38.8 °F 1.4 °F 17% 30.23 in 10.0 mi East 11.5 mph - N/A   Clear
8:15 PM 46.4 °F 41.1 °F 3.2 °F 17% 30.23 in 10.0 mi ESE 11.5 mph - N/A   Clear
8:35 PM 44.6 °F 39.7 °F 3.2 °F 18% 30.23 in 10.0 mi East 9.2 mph - N/A   Clear
8:55 PM 39.2 °F 32.0 °F 3.2 °F 22% 30.22 in 10.0 mi East 11.5 mph - N/A   Clear
9:15 PM 39.2 °F 33.0 °F 3.2 °F 22% 30.23 in 10.0 mi East 9.2 mph - N/A   Clear
9:35 PM 44.6 °F 39.7 °F 3.2 °F 18% 30.23 in 10.0 mi East 9.2 mph - N/A   Clear
10:15 PM 39.2 °F 33.0 °F 3.2 °F 22% 30.23 in 10.0 mi East 9.2 mph - N/A   Clear
10:35 PM 44.6 °F 39.7 °F 1.4 °F 17% 30.23 in 10.0 mi East 9.2 mph - N/A   Clear
10:55 PM 41.0 °F 36.4 °F 3.2 °F 21% 30.23 in 10.0 mi East 6.9 mph - N/A   Clear
11:15 PM 35.6 °F 29.2 °F 5.0 °F 28% 30.23 in 10.0 mi ESE 8.1 mph - N/A   Clear
11:35 PM 32.0 °F 26.4 °F 6.8 °F 35% 30.23 in 10.0 mi SE 5.8 mph - N/A   Clear
11:55 PM 30.2 °F 24.3 °F 6.8 °F 37% 30.22 in 10.0 mi SSE 5.8 mph - N/A   Clear